Location: Limerick
(52.6650°N, 8.6230°W)
Time: 20:02:35
(UTC+01:00)

ISS - Pass Details

Date: 24 May 2017
Orbit: 401 x 408 km, 51.6° (Epoch: 26 June)

Event Time Altitude Azimuth Distance (km) Brightness Sun altitude
Rises 04:00:46 0° 281° (W) 2,337 -0.2 -9.7°
Reaches altitude 10° 04:02:57 10° 272° (W) 1,472 -1.3 -9.5°
Maximum altitude 04:05:59 34° 205° (SSW) 697 -3.2 -9.2°
Drops below altitude 10° 04:08:59 10° 139° (SE) 1,461 -1.1 -9.0°
Sets 04:11:07 0° 130° (SE) 2,301 0.0 -8.8°
